Home   Weather   Zhengzhou   Past weeks

Flag for China Past Weather in Zhengzhou, Henan, China — Yesterday and Last 2 Weeks

Now
86 °F

Passing clouds.


Feels Like: 83 °F
Forecast: 62 / 92 °F
Wind: 8 mph from Northeast

Location: Zhengzhou Airport

Current Time: May 24, 2017 at 5:43:42 pm

Latest Report: May 24, 2017 at 5:00 pm


Visibility: N/A

Pressure: 29.89 "Hg

Humidity: 11%

Dew Point: 27 °F

Location of ZhengzhouLocation

Past Weather in Zhengzhou — Graph

°F

Zhengzhou Temperature Yesterday

Maximum temperature yesterday: 77 °F (at 3:00 pm)
Minimum temperature yesterday: 61 °F (at 2:00 am)
Average temperature yesterday: 68 °F

High & Low Weather Summary for the Past Weeks

 TemperatureHumidityPressure
High95 °F (May 17, 2:00 pm)94% (May 12, 5:00 am)30.07 "Hg (May 12, 5:00 am)
Low54 °F (May 16, 5:00 am)11% (May 10, 2:00 pm)29.59 "Hg (May 13, 3:00 am)
Average76 °F49%29.83 "Hg
* Reported May 9 4:00 pm — May 24 4:00 pm, Zhengzhou. Weather by CustomWeather, © 2017

Note: Actual official high and low records may vary slightly from our data, if they occured in-between our weather recording intervals... More about our weather records

Advertising

Zhengzhou Weather History for the Previous 24 Hours

Scroll right to see more
 ConditionsComfort  
Time TempWeatherWind HumidityBarometerVisibility
4:00 pm
Wed, May 24
86 °FPassing clouds.8 mph11%29.89 "HgN/A
3:00 pm86 °FPassing clouds.8 mph11%29.92 "HgN/A
2:00 pm88 °FPassing clouds.6 mph13%29.92 "HgN/A
1:00 pm86 °FSunny.6 mph14%29.95 "Hg10 mi
12:00 pm86 °FPassing clouds.3 mph18%29.98 "HgN/A
11:00 am82 °FPassing clouds.6 mph20%29.98 "HgN/A
10:00 am81 °FPassing clouds.8 mph30%29.98 "HgN/A
9:00 am77 °FSunny.10 mph34%29.98 "Hg10 mi
8:00 am72 °FClear.8 mph47%29.98 "Hg4 mi
7:00 am64 °FClear.6 mph68%29.98 "Hg4 mi
6:00 am61 °FClear.6 mph72%29.98 "Hg4 mi
5:00 am59 °FClear.6 mph72%29.98 "Hg4 mi
4:00 am55 °FClear.3 mph88%29.98 "Hg10 mi
3:00 am57 °FClear.1 mph88%29.98 "Hg10 mi
2:00 am59 °FClear.1 mph82%29.98 "Hg10 mi
1:00 am61 °FClear.1 mph72%29.98 "Hg10 mi
12:00 am61 °FClear.1 mph72%30.01 "Hg10 mi
11:00 pm
Tue, May 23
61 °FClear.1 mph72%30.01 "Hg10 mi
10:00 pm63 °FClear.1 mph64%30.01 "Hg10 mi
9:00 pm70 °FPassing clouds.3 mph43%30.01 "HgN/A
8:00 pm70 °FPassing clouds.3 mph40%29.98 "HgN/A
7:00 pm73 °FPassing clouds.8 mph36%29.95 "HgN/A
6:00 pm75 °FPassing clouds.8 mph34%29.95 "HgN/A
5:00 pm77 °FPassing clouds.10 mph32%29.95 "HgN/A
Weather by CustomWeather, © 2017

See weather overviewHow to use our weather pages